Location: Fiddletown
(38.4917°N, 120.6633°W)
Time: 22:24:02
(UTC-07:00)

Envisat - Visible Passes

Search period start: 03 August 2015 00:00
Search period end: 13 August 2015 00:00
Orbit: 765 x 766 km, 98.3° (Epoch: 03 August)

Date Brightness Start Highest point End Pass type
(mag) Time Alt. Az. Time Alt. Az. Time Alt. Az.
03 Aug 3.9 21:17:58 17° ESE 21:21:03 32° ENE 21:25:35 10° N visible
03 Aug 4.6 22:58:11 22° SW 23:00:07 27° W 23:04:22 10° NW visible
04 Aug 4.8 20:41:58 10° E 20:44:43 15° ENE 20:47:41 10° NNE visible
04 Aug 3.3 22:21:11 34° S 22:23:17 63° W 22:28:20 10° NNW visible
05 Aug 3.1 21:44:11 28° SE 21:46:41 57° ENE 21:51:41 10° N visible
05 Aug 5.3 23:24:24 13° WSW 23:26:10 15° W 23:28:55 10° WNW visible
06 Aug 4.2 21:07:11 15° ESE 21:10:15 26° ENE 21:14:27 10° NNE visible
06 Aug 4.3 22:47:24 27° SW 22:49:09 34° W 22:53:45 10° NNW visible
07 Aug 3.0 22:10:24 38° S 22:12:24 80° WSW 22:17:31 10° NNW visible
08 Aug 3.4 21:33:24 26° SE 21:35:50 45° ENE 21:40:42 10° N visible
08 Aug 5.0 23:13:37 17° WSW 23:15:09 19° W 23:18:40 10° NW visible
09 Aug 4.4 20:56:25 12° ESE 20:59:27 21° ENE 21:03:15 10° NNE visible
09 Aug 3.9 22:36:37 34° SW 22:38:13 44° W 22:43:03 10° NNW visible
10 Aug 2.9 21:59:38 40° SSE 22:01:32 81° ENE 22:06:38 10° N visible
10 Aug 5.6 23:40:43 10° W 23:41:17 10° W 23:41:29 10° W visible
11 Aug 3.7 21:22:39 23° ESE 21:25:01 36° ENE 21:29:39 10° N visible
11 Aug 4.7 23:02:52 22° WSW 23:04:09 24° W 23:08:13 10° NW visible
12 Aug 4.7 20:45:40 10° ESE 20:48:40 17° ENE 20:51:56 10° NNE visible
12 Aug 3.4 22:25:52 42° SSW 22:27:18 56° W 22:32:18 10° NNW visible
